SCP
0 0 0 0 0 0 0 0 0 0 0 0 0 0 0 0 0 0 0 0 0 0 0 0 0 0 0 0 0 0 0 0 0 0 0 0 0 0 0 0 0 0 0
0 0 0 0 0 0 0 0 0 0 0 0 0 0 0 0 0 0 0 0 0 0 0 0 0 0 0 0 0 0 0 0 0 0 0 0 0 0 0 0 0 0 0
0 0 0 0 0 0 0 0 0 0 0 0 0 0 0 0 0 0 0 0 0 0 0 0 0 0 0 0 0 0 0 0 0 0 0 0 0 0 0 0 0 0 0
0 0 0 0 0 0 0 0 0 0 0 0 0 0 0 0 0 0 0 0 0 0 0 0 0 0 0 0 0 0 0 0 0 0 0 0 0 0 0 0 0 0 0
0 0 0 0 0 0 0 0 0 0 0 0 0 0 0 0 0 0 0 0 0 0 0 0 0 0 0 0 0 0 0 0 0 0 0 0 0 0 0 0 0 0 0
0 0 0 0 0 0 0 0 0 0 0 0 0 0 0 0 0 0 0 0 0 0 0 0 0 0 0 0 0 0 0 0 0 0 0 0 0 0 0 0 0 0 0
0 0 0 0 0 0 0 0 0 0 0 0 0 0 0 0 0 0 0 0 0 0 0 0 0 0 0 0 0 0 0 0 0 0 0 0 0 0 0 0 0 0 0
0 0 0 0 0 0 0 0 0 0 0 0 0 0 0 0 0 0 0 0 0 0 0 0 0 0 0 0 0 0 0 0 0 0 0 0 0 0 0 0 0 0 0
0 0 0 0 0 0 0 0 0 0 0 0 0 0 0 0 0 0 0 0 0 0 0 0 0 0 0 0 0 0 0 0 0 0 0 0 0 0 0 0 0 0 0
0 0 0 0 0 0 0 0 0 0 0 0 0 0 0 0 0 0 0 0 0 0 0 0 0 0 0 0 0 0 0 0 0 0 0 0 0 0 0 0 0 0 0
0 0 0 0 0 0 0 0 0 0 0 0 0 0 0 0 0 0 0 0 0 0 0 0 0 0 0 0 0 0 0 0 0 0 0 0 0 0 0 0 0 0 0
0 0 0 0 0 0 0 0 0 0 0 0 0 0 0 0 0 0 0 0 0 0 0 0 0 0 0 0 0 0 0 0 0 0 0 0 0 0 0 0 0 0 0
0 0 0 0 0 0 0 0 0 0 0 0 0 0 0 0 0 0 0 0 0 0 0 0 0 0 0 0 0 0 0 0 0 0 0 0 0 0 0 0 0 0 0
0 0 0 0 0 0 0 0 0 0 0 0 0 0 0 0 0 0 0 0 0 0 0 0 0 0 0 0 0 0 0 0 0 0 0 0 0 0 0 0 0 0 0
0 0 0 0 0 0 0 0 0 0 0 0 0 0 0 0 0 0 0 0 0 0 0 0 0 0 0 0 0 0 0 0 0 0 0 0 0 0 0 0 0 0 0
0 0 0 0 0 0 0 0 0 0 0 0 0 0 0 0 0 0 0 0 0 0 0 0 0 0 0 0 0 0 0 0 0 0 0 0 0 0 0 0 0 0 0
0 0 0 0 0 0 0 0 0 0 0 0 0 0 0 0 0 0 0 0 0 0 0 0 0 0 0 0 0 0 0 0 0 0 0 0 0 0 0 0 0 0 0
0 0 0 0 0 0 0 0 0 0 0 0 0 0 0 0 0 0 0 0 0 0 0 0 0 0 0 0 0 0 0 0 0 0 0 0 0 0 0 0 0 0 0
0 0 0 0 0 0 0 0 0 0 0 0 0 0 0 0 0 0 0 0 0 0 0 0 0 0 0 0 0 0 0 0 0 0 0 0 0 0 0 0 0 0 0
0 0 0 0 0 0 0 0 0 0 0 0 0 0 0 0 0 0 0 0 0 0 0 0 0 0 0 0 0 0 0 0 0 0 0 0 0 0 0 0 0 0 0
0 0 0 0 0 0 0 0 0 0 0 0 0 0 0 0 0 0 0 0 0 0 0 0 0 0 0 0 0 0 0 0 0 0 0 0 0 0 0 0 0 0 0
0 0 0 0 0 0 0 0 0 0 0 0 0 0 0 0 0 0 0 0 0 0 0 0 0 0 0 0 0 0 0 0 0 0 0 0 0 0 0 0 0 0 0
0 0 0 0 0 0 0 0 0 0 0 0 0 0 0 0 0 0 0 0 0 0 0 0 0 0 0 0 0 0 0 0 0 0 0 0 0 0 0 0 0 0 0
0 0 0 0 0 0 0 0 0 0 0 0 0 0 0 0 0 0 0 0 0 0 0 0 0 0 0 0 0 0 0 0 0 0 0 0 0 0 0 0 0 0 0
0 0 0 0 0 0 0 0 0 0 0 0 0 0 0 0 0 0 0 0 0 0 0 0 0 0 0 0 0 0 0 0 0 0 0 0 0 0 0 0 0 0 0
0 0 0 0 0 0 0 0 0 0 0 0 0 0 0 0 0 0 0 0 0 0 0 0 0 0 0 0 0 0 0 0 0 0 0 0 0 0 0 0 0 0 0
Wind_Speed
3 4 8 9 9 9 9 9 10 10 10 10 10 10 10 10 10 10 10 10 10 10 10 10 10 10 10 10 10 10 10 10 10 10 10 10 9 9 10 10 10 8 11
5 5 8 9 9 9 9 9 9 9 9 9 9 9 9 9 9 9 9 9 9 10 10 10 10 10 10 9 9 10 10 9 9 9 10 9 9 9 10 10 10 6 10
6 5 7 9 9 9 9 9 9 9 9 8 8 9 8 8 8 8 8 8 9 9 9 10 10 10 9 9 9 9 9 9 9 9 8 5 5 8 9 10 10 9 9
7 5 6 8 9 9 9 9 9 9 8 8 8 8 8 8 8 7 7 8 8 8 8 9 9 9 9 9 9 8 8 8 9 8 5 4 4 8 9 9 9 9 9
6 4 6 9 9 9 9 9 8 8 8 7 7 7 7 7 7 7 7 7 7 7 7 8 8 8 8 8 7 7 7 8 8 7 4 3 3 6 8 8 9 8 9
5 4 5 9 9 8 8 8 8 8 7 7 7 7 7 7 6 6 6 6 7 6 6 7 6 6 6 6 6 7 7 8 7 5 4 3 3 6 7 8 8 8 8
5 4 4 8 8 8 8 8 8 7 7 6 7 8 7 7 6 6 6 6 6 6 6 6 6 5 5 6 6 6 7 8 5 4 3 3 3 6 7 7 7 7 7
6 4 3 7 8 7 7 7 7 6 6 7 8 8 7 7 6 6 6 6 6 6 6 6 5 5 4 5 5 5 6 6 5 4 3 3 4 6 7 7 7 7 7
5 4 3 3 4 6 6 6 6 6 6 6 7 7 7 6 5 5 5 5 6 5 5 5 5 4 4 4 5 5 5 5 3 3 3 2 4 5 6 7 7 7 7
3 3 2 2 2 2 3 5 5 5 5 5 6 6 6 5 5 5 4 5 5 5 4 4 4 4 4 4 4 4 5 4 2 3 2 3 5 5 5 5 6 7 7
3 1 2 2 2 2 2 3 3 4 3 3 3 4 4 3 3 3 3 4 4 4 4 3 3 4 3 3 4 4 4 2 2 2 1 3 4 4 5 6 6 6 7
5 3 2 2 2 2 2 2 1 2 2 2 2 3 3 2 2 2 3 4 4 4 4 4 4 4 3 2 3 3 2 2 2 1 1 4 3 4 4 5 6 6 7
5 4 3 2 2 2 1 1 1 1 1 2 2 2 2 2 2 2 2 3 3 3 3 4 4 3 3 2 2 1 1 1 1 1 1 2 3 3 4 4 5 5 6
4 4 3 3 2 2 2 1 1 1 1 1 1 2 2 1 2 2 2 2 2 2 2 2 2 3 2 2 2 1 1 1 1 0 0 1 2 3 4 4 4 5 5
5 4 4 4 3 3 2 1 2 1 1 1 1 1 2 1 1 1 1 2 2 2 2 2 2 2 2 2 1 2 1 1 1 1 0 1 1 3 3 4 4 5 5
5 5 4 4 4 3 3 2 2 2 1 1 1 1 2 1 1 1 2 2 1 1 2 2 2 2 2 2 2 2 2 1 1 0 0 1 2 2 2 3 3 4 4
5 5 5 5 4 4 3 3 2 2 2 1 1 1 1 2 2 2 2 1 1 1 2 2 2 2 2 2 2 2 1 1 1 1 0 0 1 1 2 2 3 3 4
4 4 4 5 5 4 3 3 2 2 2 1 1 1 1 2 2 2 2 1 1 1 2 2 2 2 2 2 1 1 1 1 1 1 1 1 1 1 1 1 2 3 3
4 4 4 4 5 4 4 3 2 2 2 1 1 1 1 2 2 2 2 1 2 2 1 1 2 1 1 1 1 1 1 1 1 1 1 1 1 1 1 2 3 3 3
4 4 4 4 4 4 3 3 3 2 1 1 1 1 2 2 2 2 2 2 2 2 1 1 2 2 1 1 1 2 1 1 1 1 1 1 1 1 1 1 2 2 3
4 4 4 4 4 4 3 3 2 2 1 1 1 1 1 2 2 2 2 2 2 2 1 2 2 2 1 1 2 2 2 2 1 1 1 1 2 1 1 1 1 1 1
5 4 4 4 4 4 3 3 2 2 2 1 1 1 1 2 2 3 3 2 2 2 2 1 2 1 1 1 1 1 2 3 2 2 1 1 2 2 2 2 2 2 1
5 5 5 4 4 4 4 3 3 2 2 2 1 1 0 1 2 2 3 2 2 2 2 1 2 2 1 0 1 2 2 1 2 2 2 1 2 2 2 2 2 2 2
4 4 4 3 3 4 5 5 4 3 2 2 2 1 1 1 1 2 2 3 2 2 2 2 2 1 2 1 0 1 1 2 1 2 2 2 2 2 2 2 2 2 2
4 4 4 3 3 3 4 5 4 3 2 1 1 2 1 0 1 1 2 2 2 2 2 2 2 2 2 2 1 1 1 1 1 1 2 3 2 2 2 2 2 2 2
3 3 3 4 3 3 4 4 4 4 3 3 2 2 1 0 0 0 1 2 2 2 2 2 2 2 2 2 1 1 2 2 2 2 2 2 2 2 2 2 2 2 2
Wind_Direction
176 164 156 142 134 125 118 112 109 110 111 112 114 115 118 120 123 125 127 128 129 130 129 126 123 123 124 127 127 126 127 128 130 130 130 128 125 125 127 124 118 118 121
148 153 155 145 138 131 123 116 112 110 110 112 114 115 117 118 119 124 125 127 127 130 130 128 125 124 125 126 129 129 130 129 131 132 130 129 127 128 127 123 124 126 126
133 146 152 147 141 135 127 121 117 114 112 114 117 118 117 119 119 121 122 123 126 130 131 128 127 128 127 128 128 129 130 130 129 129 123 113 125 133 128 128 130 129 128
137 139 148 148 142 136 130 125 120 117 113 112 115 119 119 120 122 123 122 121 123 126 130 130 129 130 128 128 128 128 127 128 126 124 113 114 123 133 134 133 136 134 131
134 137 153 150 143 138 134 129 125 120 117 117 117 121 124 123 122 123 122 122 122 121 127 129 127 127 127 127 126 125 125 128 124 116 111 111 114 134 138 136 139 138 134
131 135 154 150 146 142 138 133 128 125 123 124 125 126 125 124 122 123 122 120 122 120 121 124 123 123 125 128 125 123 124 124 120 113 118 127 131 141 141 142 144 144 142
132 135 150 150 149 146 142 138 133 128 126 122 123 125 123 124 119 117 121 122 122 123 123 119 113 121 131 131 127 124 126 128 122 122 128 133 145 146 145 146 146 148 149
138 137 144 154 151 146 142 140 134 129 124 119 121 122 121 121 120 115 118 118 117 116 120 121 118 116 118 128 126 124 125 128 127 130 133 143 160 159 156 154 153 158 160
125 129 134 148 154 152 146 137 133 129 121 117 119 120 120 118 112 110 115 116 113 112 117 121 123 118 115 121 124 124 128 129 128 139 151 156 171 173 169 163 160 165 166
118 128 132 126 120 130 146 141 134 127 120 115 117 120 120 115 104 99 102 112 114 115 116 118 124 121 116 118 121 125 124 125 125 144 150 166 176 176 178 176 171 172 172
150 147 142 134 123 116 132 141 134 130 113 103 98 108 100 77 71 72 87 114 115 115 109 103 108 103 93 102 114 118 114 115 128 139 161 177 184 183 184 187 184 182 181
180 184 167 152 142 131 147 103 84 85 74 62 54 61 62 66 64 69 59 91 100 99 86 78 82 78 67 68 91 95 93 115 125 147 168 177 182 182 189 190 189 191 190
178 178 172 168 150 140 120 112 89 80 74 60 59 60 63 61 54 51 46 44 48 63 61 53 53 56 57 61 68 72 86 107 125 143 162 177 184 185 186 187 192 193 192
167 176 166 165 155 152 134 121 114 105 101 88 70 73 78 72 58 58 67 55 50 55 61 54 60 62 61 61 74 74 74 110 125 117 162 192 205 208 201 198 197 197 197
175 180 176 165 165 158 146 150 138 135 129 124 99 90 109 105 91 77 77 75 69 67 76 70 66 64 56 46 57 71 72 94 128 138 264 259 238 236 219 217 217 214 208
178 180 176 172 166 155 155 161 157 153 146 135 137 138 132 125 120 107 89 85 79 79 81 87 81 76 61 59 54 55 62 71 97 152 190 283 272 251 232 232 232 226 216
180 173 175 175 163 159 162 169 158 152 144 145 150 142 140 135 134 121 107 93 81 87 89 81 69 69 68 61 45 39 52 55 63 65 66 27 306 266 245 239 245 242 230
169 170 178 168 161 163 162 160 150 144 140 140 133 124 122 124 128 118 111 103 96 94 93 90 79 72 58 52 36 18 31 41 50 48 46 30 15 334 300 279 264 257 249
169 162 160 154 155 160 156 141 122 111 118 129 117 112 117 118 126 124 116 113 111 99 87 105 83 96 86 57 36 27 19 15 360 16 24 3 351 331 320 312 286 267 257
155 152 152 147 147 140 129 115 102 94 90 99 107 119 119 119 123 126 115 115 114 105 88 88 95 77 84 74 60 34 15 360 354 355 342 348 347 320 325 316 304 291 279
148 147 157 152 153 143 140 145 140 147 139 100 100 117 122 126 133 135 129 133 120 120 133 123 106 88 65 61 69 18 0 4 357 347 352 359 352 336 339 318 298 290 291
168 167 165 167 162 160 160 156 146 137 127 130 116 109 123 128 150 160 151 143 136 131 121 118 116 111 99 76 104 82 359 348 344 351 355 351 335 333 334 317 311 306 297
172 175 172 174 163 157 143 120 101 79 76 81 86 107 139 144 160 157 157 146 149 150 161 165 149 145 162 135 90 129 140 245 310 327 337 348 340 333 324 319 320 317 308
181 170 163 164 158 150 143 143 144 146 155 171 171 167 137 120 146 152 148 155 156 153 164 181 155 163 151 165 127 90 151 158 175 315 327 334 331 320 317 320 317 310 306
166 160 154 146 148 145 145 148 143 138 147 127 126 125 103 70 152 158 155 154 162 165 173 172 152 162 165 164 160 153 137 99 143 187 293 322 331 319 310 305 306 306 299
136 145 144 145 157 155 156 155 158 152 154 145 139 147 143 123 231 210 169 171 176 173 181 188 178 169 171 166 163 156 158 167 183 183 230 279 298 308 314 309 315 316 309